Погода в Агатти

Индия     10°51′32″N   72°11′38″E
темп.,
°C
ветер,
м/с
пор.,
м/с
влажн.,
%
обл.,
%
осадки,
мм/ч
давл.,
гПа
погр.,
м
28 ноября, вс
вс2823:30+28ссв3379100 0.4 1010362
02:30+28ссв5577100 0.4 1008509
05:30+28ссв5576100 0.4 1009649
08:30+28ссв6775100 0.0 1011737
11:30+28ссв6677100 0.0 1010703
14:30+27ссв5677100 1.0 1007471
17:30+28всв4575100 2.1 1008537
20:30+28всв5576100 0.0 1010701
29 ноября, пн
пн2923:30+28в4475100 0.1 1010665
02:30+27вюв337592 0.1 1008537
05:30+27вюв55786 3.7 1008503
08:30+27вюв7883100 4.3 1010604
11:30+26юв91191100 15.0 1010642
14:30+26ююв5583100 4.8 1007623
17:30+27юв3382100 5.3 1008409
20:30+26юв4484100 5.3 1010242
30 ноября, вт
вт3023:30+26вюв2380100 7.8 1010224
02:30+26в6779100 2.8 1008572
05:30+26всв7885100 6.7 1008588
08:30+25всв9988100 2.3 1010584
11:30+25всв7789100 4.5 1009502
14:30+26в448474 1.2 1006421
17:30+27ю457925 2.2 1006634
20:30+28ю567548 0.2 1009845
1 декабря, ср
ср123:30+27ююз567660 0.2 1008772
02:30+27ююз67785 0.1 1007724
05:30+27ю77797 0.4 1007703
08:30+28ю77776 0.4 1009735
11:30+28ю6776100 0.4 1009734
14:30+28ююз677866 0.0 1007797
17:30+28ююз667959 1.1 1007622
20:30+28юз567890 0.0 1009757
2 декабря, чт
чт223:30+28юз457999 0.1 1009632
02:30+27юз458298 2.9 1008470
05:30+27зюз447999 4.2 1008629
08:30+27з3378100 0.0 1011581
11:30+27зсз4578100 0.0 1010636
14:30+28сз447798 0.0 1008719
17:30+28сз447799 0.2 1008559
20:30+28ссз4478100 0.3 1010467